Regional Weather Roundup
Issued by NWS Newport/Morehead, NC

Current Version | Previous Version | Graphics & Text | Print | Product List | Glossary Off
Versions: 1 2 3 4 5 6 7 8 9 10 11 12 13 14 15 16 17 18 19 20 21 22 23 24 25 26 27 28 29 30 31 32 33 34 35 36 37 38 39 40 41 42 43 44 45 46 47 48 49 50

000
ASUS42 KMHX 241922
RWRMHX
WEATHER ROUNDUP FOR EASTERN NORTH CAROLINA
NATIONAL WEATHER SERVICE NEWPORT/MOREHEAD CITY NC
300 PM EDT THU JUL 24 2014

NOTE: "FAIR" INDICATES FEW OR NO CLOUDS BELOW 12,000 FEET
WITH NO SIGNIFICANT WEATHER AND/OR OBSTRUCTIONS TO VISIBILITY

NCZ015>017-031-032-045>047-102-103-242000-
NORTH COAST

CITY           SKY/WX    TMP DP  RH WIND       PRES   REMARKS
EDENTON        CLOUDY    78  73  85 E6        29.88S
ELIZABETH CITY CLOUDY    77  72  84 E5        29.88S
KITTY HAWK     LGT RAIN  73  72  95 CALM      29.87F
MANTEO         NOT AVBL

$$

NCZ045>047-081-094-103-104-242000-
CENTRAL COAST

CITY           SKY/WX    TMP DP  RH WIND       PRES   REMARKS
FRISCO         LGT RAIN  74  73  97 W3        29.89F
SWANQUARTER      N/A     75 N/A N/A SE1       29.85S

$$

NCZ095-097-098-100-101-242000-
SOUTHERN COAST

CITY           SKY/WX    TMP DP  RH WIND       PRES   REMARKS
BEAUFORT       LGT RAIN  74  72  93 NE7G16    29.91F FOG
CEDAR ISLAND     N/A     73 N/A N/A S1G7      29.94S
JACKSONVILLE   MOSUNNY   84  74  71 N15       29.86R
NEWPORT        NOT AVBL
PINEY ISLAND   RAIN      74  32  21 SW7       29.90F
WILMINGTON     MOSUNNY   91  75  59 SW13      29.86F HX 101


$$

NCZ011>013-027>030-043-044-078>080-089-090>093-098-242000-
COASTAL PLAIN

CITY           SKY/WX    TMP DP  RH WIND       PRES   REMARKS
AHOSKIE        PTSUNNY   81  70  68 N5        29.87F
CLINTON        PTSUNNY   91  75  57 W12G17    29.85S HX 102
ELIZABETHTOWN  MOSUNNY   92  72  51 SW10      29.86S
GOLDSBORO      TSTM      75  73  94 SE6       29.86F
GREENVILLE     CLOUDY    79  73  83 E5        29.90S
HAVELOCK       CLOUDY    76  72  87 SE7       29.91R THUNDER
KENANSVILLE    PTSUNNY   80  71  74 NE6G20    29.88S
KINSTON        LGT RAIN  79  75  89 CALM      29.88F
NEW BERN       TSTM      75  72  88 SW7       29.89S FOG
RICHLANDS      CLOUDY    77  72  83 NW8G17    29.87S THUNDER
ROANOKE RAPIDS NOT AVBL
ROCKY MOUNT    MOSUNNY   84  72  67 CALM      29.87F
WASHINGTON     CLOUDY    75  72  89 CALM      29.88S
WHITEVILLE     MOSUNNY   92  73  53 SW8       29.87S HX 101

$$

AMZ130-135-150-152-154-156-158-170-250-252-270-ANZ085-086-088-633-658-670-242000-
MARINE OBSERVATIONS

STATION/POSITION TIME  TEMP    WIND        PRES    WAVE   SWELL
                       AIR SEA DIR/SP/G            HT/PER HT/PER
                 (UTC) (F)     (DEG/KT/KT) (MB)    (FT/S) (FT/S)
CHESAPEAKE LIGHT NOT AVBL
BUOY 44014       1900   76 78   20/  6/  8 1011.1    4/ 6   3/ 6
DUCK             1900   73 72   50/  3/  3 1011.3
2E DUCK          1900                        N/A     2/ 9
OREGON INLET     1900   73 83  360/  2/  4 1012.1
BUOY 44095       1900      78                N/A     3/ 7
20E OREGON INLET 1800          310/ 21/ 25   N/A
HATTERAS CG      1900   73 82  280/  5/  8 1012.8
DIAMOND BUOY     1900          VRB 17/ 21  1012.0    4/ 5   2/ 9
CAPE LOOKOUT     1900   78     350/ 11/ 12 1013.3
BEAUFORT LAB     1900   74 82  360/ 12/ 20 1013.1
30 SE NEW RIVER  1900   81 81  220/ 17/ 19 1012.2    4/ 6
5 SE WRIGHTSVILL 1900   80 82  200/ 17/ 21   N/A
BUOY 41002       1845   82 82  230/ 21/ 25 1016.0    5/ 5
BUOY 41004       1900   83 83  220/ 14/ 16 1013.2    3/ 5   2/ 8

$$



USA.gov is the U.S. government's official web portal to all federal, state and local government web resources and services.